Time,TemperatureF,DewpointF,PressureIn,WindDirection,WindDirectionDegrees,WindSpeedMPH,WindSpeedGustMPH,Humidity,HourlyPrecipIn,Conditions,Clouds,dailyrainin,SoftwareType,DateUTC
2013-03-13 00:03:00,35.8,29.2,30.13,ESE,112,0.0,0.0,77,0.00,,,0.00,WUHU21623XXSP,2013-03-13 04:03:00,
2013-03-13 00:08:00,35.8,29.9,30.13,ESE,112,0.0,0.0,79,0.00,,,0.00,WUHU21623XXSP,2013-03-13 04:08:00,
2013-03-13 00:13:00,35.4,29.2,30.13,ESE,112,0.0,0.0,78,0.00,,,0.00,WUHU21623XXSP,2013-03-13 04:13:00,
2013-03-13 00:18:00,35.2,29.3,30.13,ESE,112,0.0,0.0,79,0.00,,,0.00,WUHU21623XXSP,2013-03-13 04:18:00,
2013-03-13 00:23:00,35.2,29.3,30.14,North,0,0.0,0.0,79,0.00,,,0.00,WUHU21623XXSP,2013-03-13 04:23:00,
2013-03-13 00:28:00,35.2,29.7,30.13,East,90,0.0,0.0,80,0.00,,,0.00,WUHU21623XXSP,2013-03-13 04:28:00,
2013-03-13 00:33:00,34.9,29.3,30.13,ESE,112,0.0,0.0,80,0.00,,,0.00,WUHU21623XXSP,2013-03-13 04:33:00,
2013-03-13 00:38:00,34.9,29.3,30.14,East,90,0.0,0.0,80,0.00,,,0.00,WUHU21623XXSP,2013-03-13 04:38:00,
2013-03-13 00:43:00,34.5,28.9,30.14,South,180,0.0,0.0,80,0.00,,,0.00,WUHU21623XXSP,2013-03-13 04:43:00,
2013-03-13 00:48:00,34.5,28.9,30.14,ESE,112,0.0,0.0,80,0.00,,,0.00,WUHU21623XXSP,2013-03-13 04:48:00,
2013-03-13 00:53:00,34.5,29.2,30.14,East,90,0.0,0.0,81,0.00,,,0.00,WUHU21623XXSP,2013-03-13 04:53:00,
2013-03-13 00:59:00,34.5,29.2,30.14,ESE,112,0.0,0.0,81,0.00,,,0.00,WUHU21623XXSP,2013-03-13 04:59:00,
2013-03-13 01:04:00,34.3,29.0,30.15,ESE,112,0.0,0.0,81,0.00,,,0.00,WUHU21623XXSP,2013-03-13 05:04:00,
2013-03-13 01:09:00,34.3,29.0,30.15,ESE,112,0.0,0.0,81,0.00,,,0.00,WUHU21623XXSP,2013-03-13 05:09:00,
2013-03-13 01:14:00,34.3,29.3,30.15,NNE,22,0.0,0.0,82,0.00,,,0.00,WUHU21623XXSP,2013-03-13 05:14:00,
2013-03-13 01:19:00,34.2,29.4,30.15,NNE,22,0.0,0.0,83,0.00,,,0.00,WUHU21623XXSP,2013-03-13 05:19:00,
2013-03-13 01:24:00,34.2,29.4,30.15,ESE,112,0.0,0.0,83,0.00,,,0.00,WUHU21623XXSP,2013-03-13 05:24:00,
2013-03-13 01:29:00,33.8,28.8,30.15,South,180,0.0,0.0,82,0.00,,,0.00,WUHU21623XXSP,2013-03-13 05:29:00,
2013-03-13 01:34:00,33.6,28.6,30.15,South,180,0.0,0.0,82,0.00,,,0.00,WUHU21623XXSP,2013-03-13 05:34:00,
2013-03-13 01:39:00,33.6,28.9,30.15,ESE,112,0.0,0.0,83,0.00,,,0.00,WUHU21623XXSP,2013-03-13 05:39:00,
2013-03-13 01:44:00,33.6,28.9,30.15,NNE,22,0.0,0.0,83,0.00,,,0.00,WUHU21623XXSP,2013-03-13 05:44:00,
2013-03-13 01:49:00,33.6,28.9,30.15,South,180,0.0,0.0,83,0.00,,,0.00,WUHU21623XXSP,2013-03-13 05:49:00,
2013-03-13 01:54:00,33.6,28.9,30.15,ESE,112,0.0,0.0,83,0.00,,,0.00,WUHU21623XXSP,2013-03-13 05:54:00,
2013-03-13 01:59:00,33.8,29.4,30.14,ESE,112,0.0,0.0,84,0.00,,,0.00,WUHU21623XXSP,2013-03-13 05:59:00,
2013-03-13 02:04:00,33.8,29.4,30.15,ESE,112,0.0,0.0,84,0.00,,,0.00,WUHU21623XXSP,2013-03-13 06:04:00,
2013-03-13 02:09:00,34.0,29.6,30.14,ESE,112,0.0,0.0,84,0.00,,,0.00,WUHU21623XXSP,2013-03-13 06:09:00,
2013-03-13 02:14:00,34.0,29.6,30.14,ESE,112,0.0,0.0,84,0.00,,,0.00,WUHU21623XXSP,2013-03-13 06:14:00,
2013-03-13 02:19:00,33.6,29.2,30.14,ESE,112,0.0,0.0,84,0.00,,,0.00,WUHU21623XXSP,2013-03-13 06:19:00,
2013-03-13 02:24:00,33.4,29.0,30.14,ESE,112,0.0,0.0,84,0.00,,,0.00,WUHU21623XXSP,2013-03-13 06:24:00,
2013-03-13 02:29:00,33.3,28.9,30.14,ESE,112,0.0,0.0,84,0.00,,,0.00,WUHU21623XXSP,2013-03-13 06:29:00,
2013-03-13 02:34:00,33.1,29.0,30.14,ESE,112,0.0,0.0,85,0.00,,,0.00,WUHU21623XXSP,2013-03-13 06:34:00,
2013-03-13 02:39:00,32.7,28.4,30.14,WNW,292,0.0,0.0,84,0.00,,,0.00,WUHU21623XXSP,2013-03-13 06:39:00,
2013-03-13 02:44:00,32.5,28.5,30.13,ESE,112,0.0,3.8,85,0.00,,,0.00,WUHU21623XXSP,2013-03-13 06:44:00,
2013-03-13 02:49:00,32.5,28.5,30.13,South,180,0.0,3.8,85,0.00,,,0.00,WUHU21623XXSP,2013-03-13 06:49:00,
2013-03-13 02:54:00,32.5,28.5,30.13,ESE,112,0.0,0.0,85,0.00,,,0.00,WUHU21623XXSP,2013-03-13 06:54:00,
2013-03-13 02:59:00,32.5,28.5,30.13,ESE,112,0.0,0.0,85,0.00,,,0.00,WUHU21623XXSP,2013-03-13 06:59:00,
2013-03-13 03:04:00,32.4,28.4,30.13,East,90,0.0,0.0,85,0.00,,,0.00,WUHU21623XXSP,2013-03-13 07:04:00,
2013-03-13 03:09:00,32.2,28.2,30.13,East,90,0.0,0.0,85,0.00,,,0.00,WUHU21623XXSP,2013-03-13 07:09:00,
2013-03-13 03:14:00,32.2,28.2,30.13,East,90,0.0,0.0,85,0.00,,,0.00,WUHU21623XXSP,2013-03-13 07:14:00,
2013-03-13 03:19:00,31.8,28.1,30.13,East,90,0.0,0.0,86,0.00,,,0.00,WUHU21623XXSP,2013-03-13 07:19:00,
2013-03-13 03:24:00,31.8,28.1,30.13,East,90,0.0,0.0,86,0.00,,,0.00,WUHU21623XXSP,2013-03-13 07:24:00,
2013-03-13 03:29:00,31.6,27.7,30.13,ESE,112,0.0,0.0,85,0.00,,,0.00,WUHU21623XXSP,2013-03-13 07:29:00,
2013-03-13 03:35:00,31.6,28.0,30.13,WNW,292,0.0,0.0,86,0.00,,,0.00,WUHU21623XXSP,2013-03-13 07:35:00,
2013-03-13 03:40:00,31.6,28.0,30.13,SSW,202,0.0,0.0,86,0.00,,,0.00,WUHU21623XXSP,2013-03-13 07:40:00,
2013-03-13 03:45:00,31.3,27.6,30.13,East,90,0.0,0.0,86,0.00,,,0.00,WUHU21623XXSP,2013-03-13 07:45:00,
2013-03-13 03:50:00,31.3,27.6,30.13,ESE,112,0.0,0.0,86,0.00,,,0.00,WUHU21623XXSP,2013-03-13 07:50:00,
2013-03-13 03:55:00,31.3,27.6,30.12,West,270,0.0,0.0,86,0.00,,,0.00,WUHU21623XXSP,2013-03-13 07:55:00,
2013-03-13 04:00:00,31.3,27.6,30.12,NNE,22,0.0,0.0,86,0.00,,,0.00,WUHU21623XXSP,2013-03-13 08:00:00,
2013-03-13 04:05:00,31.3,27.6,30.12,ESE,112,0.0,0.0,86,0.00,,,0.00,WUHU21623XXSP,2013-03-13 08:05:00,
2013-03-13 04:10:00,31.3,27.6,30.12,ESE,112,0.0,0.0,86,0.00,,,0.00,WUHU21623XXSP,2013-03-13 08:10:00,
2013-03-13 04:15:00,31.3,27.6,30.12,ESE,112,0.0,0.0,86,0.00,,,0.00,WUHU21623XXSP,2013-03-13 08:15:00,
2013-03-13 04:20:00,31.1,27.4,30.12,East,90,0.0,0.0,86,0.00,,,0.00,WUHU21623XXSP,2013-03-13 08:20:00,
2013-03-13 04:25:00,31.3,27.6,30.12,ESE,112,0.0,0.0,86,0.00,,,0.00,WUHU21623XXSP,2013-03-13 08:25:00,
2013-03-13 04:30:00,31.3,27.6,30.12,ESE,112,0.0,0.0,86,0.00,,,0.00,WUHU21623XXSP,2013-03-13 08:30:00,
2013-03-13 04:35:00,31.3,27.6,30.11,ESE,112,0.0,0.0,86,0.00,,,0.00,WUHU21623XXSP,2013-03-13 08:35:00,
2013-03-13 04:40:00,31.3,27.6,30.11,ESE,112,0.0,0.0,86,0.00,,,0.00,WUHU21623XXSP,2013-03-13 08:40:00,
2013-03-13 04:45:00,31.1,27.4,30.12,South,180,0.0,0.0,86,0.00,,,0.00,WUHU21623XXSP,2013-03-13 08:45:00,
2013-03-13 04:50:00,31.1,27.4,30.11,ESE,112,0.0,0.0,86,0.00,,,0.00,WUHU21623XXSP,2013-03-13 08:50:00,
2013-03-13 04:55:00,31.1,27.4,30.12,East,90,1.4,1.7,86,0.00,,,0.00,WUHU21623XXSP,2013-03-13 08:55:00,
2013-03-13 05:00:00,30.9,27.2,30.12,ESE,112,0.0,1.7,86,0.00,,,0.00,WUHU21623XXSP,2013-03-13 09:00:00,
2013-03-13 05:05:00,30.9,27.2,30.12,NNE,22,0.0,1.7,86,0.00,,,0.00,WUHU21623XXSP,2013-03-13 09:05:00,
2013-03-13 05:10:00,30.7,27.1,30.12,ESE,112,0.0,0.0,86,0.00,,,0.00,WUHU21623XXSP,2013-03-13 09:10:00,
2013-03-13 05:15:00,30.6,26.9,30.11,East,90,0.0,0.0,86,0.00,,,0.00,WUHU21623XXSP,2013-03-13 09:15:00,
2013-03-13 05:20:00,30.4,26.7,30.11,South,180,0.0,0.0,86,0.00,,,0.00,WUHU21623XXSP,2013-03-13 09:20:00,
2013-03-13 05:25:00,30.2,26.5,30.12,East,90,0.0,0.0,86,0.00,,,0.00,WUHU21623XXSP,2013-03-13 09:25:00,
2013-03-13 05:30:00,30.0,26.3,30.12,ESE,112,0.0,0.0,86,0.00,,,0.00,WUHU21623XXSP,2013-03-13 09:30:00,
2013-03-13 05:35:00,30.0,26.3,30.12,ESE,112,0.0,0.0,86,0.00,,,0.00,WUHU21623XXSP,2013-03-13 09:35:00,
2013-03-13 05:40:00,30.0,26.3,30.12,NNE,22,0.0,0.0,86,0.00,,,0.00,WUHU21623XXSP,2013-03-13 09:40:00,
2013-03-13 05:45:00,30.0,26.3,30.12,ESE,112,0.0,0.0,86,0.00,,,0.00,WUHU21623XXSP,2013-03-13 09:45:00,
2013-03-13 05:50:00,30.0,26.3,30.12,East,90,0.0,0.0,86,0.00,,,0.00,WUHU21623XXSP,2013-03-13 09:50:00,
2013-03-13 05:55:00,29.8,26.2,30.13,South,180,0.0,1.7,86,0.00,,,0.00,WUHU21623XXSP,2013-03-13 09:55:00,
2013-03-13 06:00:00,29.8,26.2,30.13,South,180,0.0,1.7,86,0.00,,,0.00,WUHU21623XXSP,2013-03-13 10:00:00,
2013-03-13 06:05:00,29.7,26.0,30.13,East,90,0.0,0.0,86,0.00,,,0.00,WUHU21623XXSP,2013-03-13 10:05:00,
2013-03-13 06:10:00,29.7,26.0,30.13,East,90,0.0,0.0,86,0.00,,,0.00,WUHU21623XXSP,2013-03-13 10:10:00,
2013-03-13 06:15:00,29.5,25.8,30.13,NNE,22,0.0,0.0,86,0.00,,,0.00,WUHU21623XXSP,2013-03-13 10:15:00,
2013-03-13 06:20:00,29.5,25.8,30.13,ESE,112,0.0,0.0,86,0.00,,,0.00,WUHU21623XXSP,2013-03-13 10:20:00,
2013-03-13 06:25:00,29.5,26.1,30.14,ESE,112,0.0,0.0,87,0.00,,,0.00,WUHU21623XXSP,2013-03-13 10:25:00,
2013-03-13 06:30:00,29.7,26.3,30.14,East,90,0.0,0.0,87,0.00,,,0.00,WUHU21623XXSP,2013-03-13 10:30:00,
2013-03-13 06:35:00,29.7,26.3,30.14,East,90,0.0,0.0,87,0.00,,,0.00,WUHU21623XXSP,2013-03-13 10:35:00,
2013-03-13 06:41:00,29.5,26.1,30.14,ESE,112,0.0,0.0,87,0.00,,,0.00,WUHU21623XXSP,2013-03-13 10:41:00,
2013-03-13 06:46:00,29.1,25.7,30.15,East,90,0.0,0.0,87,0.00,,,0.00,WUHU21623XXSP,2013-03-13 10:46:00,
2013-03-13 06:51:00,29.1,25.7,30.15,NNE,22,0.0,0.0,87,0.00,,,0.00,WUHU21623XXSP,2013-03-13 10:51:00,
2013-03-13 06:56:00,29.1,25.7,30.15,ESE,112,0.0,0.0,87,0.00,,,0.00,WUHU21623XXSP,2013-03-13 10:56:00,
2013-03-13 07:01:00,28.9,25.6,30.15,ESE,112,0.0,0.0,87,0.00,,,0.00,WUHU21623XXSP,2013-03-13 11:01:00,
2013-03-13 07:06:00,28.9,25.6,30.15,ESE,112,0.0,0.0,87,0.00,,,0.00,WUHU21623XXSP,2013-03-13 11:06:00,
2013-03-13 07:11:00,28.9,25.6,30.15,ESE,112,0.0,0.0,87,0.00,,,0.00,WUHU21623XXSP,2013-03-13 11:11:00,
2013-03-13 07:16:00,28.9,25.6,30.15,ESE,112,0.0,0.0,87,0.00,,,0.00,WUHU21623XXSP,2013-03-13 11:16:00,
2013-03-13 07:21:00,28.9,25.6,30.15,ESE,112,0.0,0.0,87,0.00,,,0.00,WUHU21623XXSP,2013-03-13 11:21:00,
2013-03-13 07:26:00,28.9,25.6,30.15,SSW,202,0.0,0.0,87,0.00,,,0.00,WUHU21623XXSP,2013-03-13 11:26:00,
2013-03-13 07:31:00,29.1,25.7,30.15,ESE,112,0.0,1.9,87,0.00,,,0.00,WUHU21623XXSP,2013-03-13 11:31:00,
2013-03-13 07:36:00,29.1,25.7,30.15,ESE,112,0.0,1.9,87,0.00,,,0.00,WUHU21623XXSP,2013-03-13 11:36:00,
2013-03-13 07:41:00,29.1,25.7,30.15,ESE,112,0.0,0.0,87,0.00,,,0.00,WUHU21623XXSP,2013-03-13 11:41:00,
2013-03-13 07:46:00,29.1,25.7,30.15,ESE,112,0.0,2.7,87,0.00,,,0.00,WUHU21623XXSP,2013-03-13 11:46:00,
2013-03-13 07:51:00,29.1,25.7,30.15,South,180,0.0,2.7,87,0.00,,,0.00,WUHU21623XXSP,2013-03-13 11:51:00,
2013-03-13 07:56:00,29.1,25.7,30.15,ESE,112,0.0,0.0,87,0.00,,,0.00,WUHU21623XXSP,2013-03-13 11:56:00,
2013-03-13 08:01:00,28.9,25.6,30.15,South,180,0.0,0.0,87,0.00,,,0.00,WUHU21623XXSP,2013-03-13 12:01:00,
2013-03-13 08:07:00,29.1,25.7,30.16,ESE,112,0.0,0.0,87,0.00,,,0.00,WUHU21623XXSP,2013-03-13 12:07:00,
2013-03-13 08:12:00,29.1,25.7,30.16,South,180,0.0,0.0,87,0.00,,,0.00,WUHU21623XXSP,2013-03-13 12:12:00,
2013-03-13 08:17:00,29.1,25.7,30.16,South,180,0.0,0.0,87,0.00,,,0.00,WUHU21623XXSP,2013-03-13 12:17:00,
2013-03-13 08:22:00,29.5,26.1,30.17,ESE,112,0.0,0.0,87,0.00,,,0.00,WUHU21623XXSP,2013-03-13 12:22:00,
2013-03-13 08:27:00,29.8,26.7,30.17,ESE,112,0.0,0.0,88,0.00,,,0.00,WUHU21623XXSP,2013-03-13 12:27:00,
2013-03-13 08:32:00,30.0,26.9,30.17,East,90,0.0,0.0,88,0.00,,,0.00,WUHU21623XXSP,2013-03-13 12:32:00,
2013-03-13 08:37:00,30.6,27.5,30.17,South,180,0.0,0.0,88,0.00,,,0.00,WUHU21623XXSP,2013-03-13 12:37:00,
2013-03-13 08:42:00,30.9,27.8,30.17,NNE,22,1.7,1.9,88,0.00,,,0.00,WUHU21623XXSP,2013-03-13 12:42:00,
2013-03-13 08:47:00,31.5,28.4,30.18,ESE,112,0.0,1.9,88,0.00,,,0.00,WUHU21623XXSP,2013-03-13 12:47:00,
2013-03-13 08:52:00,32.4,29.2,30.18,NNE,22,0.0,1.9,88,0.00,,,0.00,WUHU21623XXSP,2013-03-13 12:52:00,
2013-03-13 08:57:00,32.7,29.3,30.19,North,0,0.0,0.0,87,0.00,,,0.00,WUHU21623XXSP,2013-03-13 12:57:00,
2013-03-13 09:02:00,33.4,29.9,30.19,NNE,22,0.0,0.0,87,0.00,,,0.00,WUHU21623XXSP,2013-03-13 13:02:00,
2013-03-13 09:07:00,33.6,30.1,30.19,NNE,22,0.0,0.0,87,0.00,,,0.00,WUHU21623XXSP,2013-03-13 13:07:00,
2013-03-13 09:12:00,33.8,30.2,30.19,East,90,1.7,1.9,87,0.00,,,0.00,WUHU21623XXSP,2013-03-13 13:12:00,
2013-03-13 09:17:00,34.3,30.5,30.20,NNE,22,0.0,1.9,86,0.00,,,0.00,WUHU21623XXSP,2013-03-13 13:17:00,
2013-03-13 09:22:00,34.3,30.5,30.20,East,90,0.0,1.9,86,0.00,,,0.00,WUHU21623XXSP,2013-03-13 13:22:00,
2013-03-13 09:27:00,34.7,30.8,30.20,East,90,0.0,0.0,86,0.00,,,0.00,WUHU21623XXSP,2013-03-13 13:27:00,
2013-03-13 09:32:00,35.2,31.4,30.20,WNW,292,0.0,0.0,86,0.00,,,0.00,WUHU21623XXSP,2013-03-13 13:32:00,
2013-03-13 09:37:00,36.1,32.0,30.20,NNE,22,2.9,3.3,85,0.00,,,0.00,WUHU21623XXSP,2013-03-13 13:37:00,
2013-03-13 09:42:00,36.9,31.9,30.21,WNW,292,0.0,3.3,82,0.00,,,0.00,WUHU21623XXSP,2013-03-13 13:42:00,
2013-03-13 09:47:00,37.2,31.6,30.21,NNE,22,0.0,3.3,80,0.00,,,0.00,WUHU21623XXSP,2013-03-13 13:47:00,
2013-03-13 09:52:00,37.6,30.4,30.21,West,270,2.1,2.4,75,0.00,,,0.00,WUHU21623XXSP,2013-03-13 13:52:00,
2013-03-13 09:57:00,37.9,30.4,30.21,WNW,292,0.0,2.4,74,0.00,,,0.00,WUHU21623XXSP,2013-03-13 13:57:00,
2013-03-13 10:02:00,38.5,30.2,30.21,WNW,292,0.0,2.4,72,0.00,,,0.00,WUHU21623XXSP,2013-03-13 14:02:00,
2013-03-13 10:08:00,39.0,30.0,30.21,WNW,292,0.0,0.0,70,0.00,,,0.00,WUHU21623XXSP,2013-03-13 14:08:00,
2013-03-13 10:13:00,39.4,30.0,30.22,North,0,4.0,4.6,69,0.00,,,0.00,WUHU21623XXSP,2013-03-13 14:13:00,
2013-03-13 10:18:00,40.3,29.4,30.21,WNW,292,1.7,6.5,65,0.00,,,0.00,WUHU21623XXSP,2013-03-13 14:18:00,
2013-03-13 10:23:00,40.3,29.0,30.22,North,0,0.0,6.5,64,0.00,,,0.00,WUHU21623XXSP,2013-03-13 14:23:00,
2013-03-13 10:28:00,41.0,30.1,30.22,WNW,292,1.7,1.9,65,0.00,,,0.00,WUHU21623XXSP,2013-03-13 14:28:00,
2013-03-13 10:33:00,41.5,29.1,30.22,WNW,292,4.4,5.4,61,0.00,,,0.00,WUHU21623XXSP,2013-03-13 14:33:00,
2013-03-13 10:38:00,41.0,28.6,30.22,North,0,1.4,5.4,61,0.00,,,0.00,WUHU21623XXSP,2013-03-13 14:38:00,
2013-03-13 10:43:00,41.7,28.9,30.22,WNW,292,0.0,5.7,60,0.00,,,0.00,WUHU21623XXSP,2013-03-13 14:43:00,
2013-03-13 10:48:00,41.4,28.1,30.22,WNW,292,2.6,5.7,59,0.00,,,0.00,WUHU21623XXSP,2013-03-13 14:48:00,
2013-03-13 10:53:00,41.2,28.4,30.22,North,0,4.9,5.7,60,0.00,,,0.00,WUHU21623XXSP,2013-03-13 14:53:00,
2013-03-13 10:58:00,41.4,27.8,30.22,WNW,292,0.0,5.7,58,0.00,,,0.00,WUHU21623XXSP,2013-03-13 14:58:00,
2013-03-13 11:03:00,41.5,27.8,30.22,WNW,292,2.1,5.7,58,0.00,,,0.00,WUHU21623XXSP,2013-03-13 15:03:00,
2013-03-13 11:08:00,42.4,28.6,30.23,West,270,0.0,2.4,58,0.00,,,0.00,WUHU21623XXSP,2013-03-13 15:08:00,
2013-03-13 11:13:00,43.3,28.6,30.23,West,270,0.0,2.4,56,0.00,,,0.00,WUHU21623XXSP,2013-03-13 15:13:00,
2013-03-13 11:18:00,43.9,28.7,30.23,WNW,292,4.4,5.1,55,0.00,,,0.00,WUHU21623XXSP,2013-03-13 15:18:00,
2013-03-13 11:23:00,44.4,28.3,30.23,West,270,3.5,5.1,53,0.00,,,0.00,WUHU21623XXSP,2013-03-13 15:23:00,
2013-03-13 11:28:00,45.0,28.8,30.23,WNW,292,2.1,5.7,53,0.00,,,0.00,WUHU21623XXSP,2013-03-13 15:28:00,
2013-03-13 11:33:00,45.7,29.0,30.23,West,270,0.0,5.7,52,0.00,,,0.00,WUHU21623XXSP,2013-03-13 15:33:00,
2013-03-13 11:38:00,45.5,28.9,30.23,West,270,2.6,3.8,52,0.00,,,0.00,WUHU21623XXSP,2013-03-13 15:38:00,
2013-03-13 11:43:00,45.1,28.1,30.23,WNW,292,6.6,7.6,51,0.00,,,0.00,WUHU21623XXSP,2013-03-13 15:43:00,
2013-03-13 11:48:00,45.3,27.8,30.23,SSW,202,2.9,7.6,50,0.00,,,0.00,WUHU21623XXSP,2013-03-13 15:48:00,
2013-03-13 11:53:00,44.6,27.1,30.23,West,270,2.1,7.6,50,0.00,,,0.00,WUHU21623XXSP,2013-03-13 15:53:00,
2013-03-13 11:58:00,43.9,26.5,30.23,WNW,292,4.9,9.5,50,0.00,,,0.00,WUHU21623XXSP,2013-03-13 15:58:00,
2013-03-13 12:03:00,43.3,26.4,30.23,West,270,2.6,9.5,51,0.00,,,0.00,WUHU21623XXSP,2013-03-13 16:03:00,
2013-03-13 12:08:00,43.2,26.3,30.23,West,270,0.0,5.7,51,0.00,,,0.00,WUHU21623XXSP,2013-03-13 16:08:00,
2013-03-13 12:13:00,44.6,27.1,30.24,WNW,292,2.9,3.3,50,0.00,,,0.00,WUHU21623XXSP,2013-03-13 16:13:00,
2013-03-13 12:18:00,45.1,27.1,30.24,West,270,0.0,4.4,49,0.00,,,0.00,WUHU21623XXSP,2013-03-13 16:18:00,
2013-03-13 12:23:00,44.1,26.1,30.24,West,270,4.9,5.7,49,0.00,,,0.00,WUHU21623XXSP,2013-03-13 16:23:00,
2013-03-13 12:28:00,43.5,25.1,30.24,WNW,292,0.0,5.7,48,0.00,,,0.00,WUHU21623XXSP,2013-03-13 16:28:00,
2013-03-13 12:33:00,43.3,25.5,30.24,WNW,292,4.7,5.4,49,0.00,,,0.00,WUHU21623XXSP,2013-03-13 16:33:00,
2013-03-13 12:38:00,44.2,26.3,30.24,West,270,4.9,5.7,49,0.00,,,0.00,WUHU21623XXSP,2013-03-13 16:38:00,
2013-03-13 12:43:00,45.1,26.5,30.24,North,0,3.8,14.4,48,0.00,,,0.00,WUHU21623XXSP,2013-03-13 16:43:00,
2013-03-13 12:48:00,45.0,25.8,30.24,WNW,292,3.3,14.4,47,0.00,,,0.00,WUHU21623XXSP,2013-03-13 16:48:00,
2013-03-13 12:54:00,44.8,25.1,30.24,West,270,0.0,6.8,46,0.00,,,0.00,WUHU21623XXSP,2013-03-13 16:54:00,
2013-03-13 12:59:00,45.1,26.0,30.24,WNW,292,11.6,13.3,47,0.00,,,0.00,WUHU21623XXSP,2013-03-13 16:59:00,
2013-03-13 13:04:00,45.0,25.8,30.24,West,270,6.6,13.3,47,0.00,,,0.00,WUHU21623XXSP,2013-03-13 17:04:00,
2013-03-13 13:09:00,45.3,26.2,30.24,WNW,292,2.3,13.3,47,0.00,,,0.00,WUHU21623XXSP,2013-03-13 17:09:00,
2013-03-13 13:14:00,46.4,26.6,30.24,WNW,292,0.0,7.6,46,0.00,,,0.00,WUHU21623XXSP,2013-03-13 17:14:00,
2013-03-13 13:19:00,45.9,26.1,30.24,SSW,202,4.0,4.6,46,0.00,,,0.00,WUHU21623XXSP,2013-03-13 17:19:00,
2013-03-13 13:24:00,45.1,25.5,30.24,West,270,9.4,10.8,46,0.00,,,0.00,WUHU21623XXSP,2013-03-13 17:24:00,
2013-03-13 13:29:00,45.7,25.4,30.24,West,270,6.4,10.8,45,0.00,,,0.00,WUHU21623XXSP,2013-03-13 17:29:00,
2013-03-13 13:34:00,45.9,25.6,30.25,WNW,292,1.7,10.8,45,0.00,,,0.00,WUHU21623XXSP,2013-03-13 17:34:00,
2013-03-13 13:39:00,45.1,26.0,30.24,WNW,292,3.3,7.6,47,0.00,,,0.00,WUHU21623XXSP,2013-03-13 17:39:00,
2013-03-13 13:44:00,45.0,25.8,30.24,WNW,292,2.6,7.6,47,0.00,,,0.00,WUHU21623XXSP,2013-03-13 17:44:00,
2013-03-13 13:49:00,44.4,25.4,30.24,WNW,292,2.6,7.6,47,0.00,,,0.00,WUHU21623XXSP,2013-03-13 17:49:00,
2013-03-13 13:54:00,43.3,24.9,30.24,North,0,6.1,7.6,48,0.00,,,0.00,WUHU21623XXSP,2013-03-13 17:54:00,
2013-03-13 14:00:00,43.2,25.8,30.24,WNW,292,1.7,7.0,50,0.00,,,0.00,WUHU21623XXSP,2013-03-13 18:00:00,
2013-03-13 14:05:00,43.9,26.5,30.24,West,270,2.3,7.0,50,0.00,,,0.00,WUHU21623XXSP,2013-03-13 18:05:00,
2013-03-13 14:10:00,43.7,25.3,30.24,West,270,4.0,5.4,48,0.00,,,0.00,WUHU21623XXSP,2013-03-13 18:10:00,
2013-03-13 14:15:00,43.7,25.3,30.24,West,270,0.0,5.1,48,0.00,,,0.00,WUHU21623XXSP,2013-03-13 18:15:00,
2013-03-13 14:20:00,43.5,25.1,30.24,North,0,4.9,5.7,48,0.00,,,0.00,WUHU21623XXSP,2013-03-13 18:20:00,
2013-03-13 14:25:00,45.5,27.4,30.24,WNW,292,2.3,5.7,49,0.00,,,0.00,WUHU21623XXSP,2013-03-13 18:25:00,
2013-03-13 14:30:00,45.7,26.0,30.24,West,270,0.0,5.7,46,0.00,,,0.00,WUHU21623XXSP,2013-03-13 18:30:00,
2013-03-13 14:35:00,43.7,24.7,30.24,North,0,7.0,8.1,47,0.00,,,0.00,WUHU21623XXSP,2013-03-13 18:35:00,
2013-03-13 14:40:00,43.5,25.1,30.24,North,0,0.0,8.1,48,0.00,,,0.00,WUHU21623XXSP,2013-03-13 18:40:00,
2013-03-13 14:45:00,43.2,24.2,30.24,West,270,4.4,9.8,47,0.00,,,0.00,WUHU21623XXSP,2013-03-13 18:45:00,
2013-03-13 14:50:00,43.5,24.5,30.23,WNW,292,2.1,9.8,47,0.00,,,0.00,WUHU21623XXSP,2013-03-13 18:50:00,
2013-03-13 14:55:00,46.2,25.9,30.23,WNW,292,3.3,5.1,45,0.00,,,0.00,WUHU21623XXSP,2013-03-13 18:55:00,
2013-03-13 15:00:00,46.4,26.0,30.23,WNW,292,0.0,3.8,44,0.00,,,0.00,WUHU21623XXSP,2013-03-13 19:00:00,
2013-03-13 15:05:00,44.6,23.9,30.23,West,270,0.0,3.8,44,0.00,,,0.00,WUHU21623XXSP,2013-03-13 19:05:00,
2013-03-13 15:10:00,43.9,24.3,30.23,West,270,0.0,7.6,46,0.00,,,0.00,WUHU21623XXSP,2013-03-13 19:10:00,
2013-03-13 15:15:00,43.7,24.2,30.23,North,0,3.5,7.6,46,0.00,,,0.00,WUHU21623XXSP,2013-03-13 19:15:00,
2013-03-13 15:20:00,43.3,23.3,30.22,North,0,0.0,4.6,45,0.00,,,0.00,WUHU21623XXSP,2013-03-13 19:20:00,
2013-03-13 15:25:00,43.0,23.0,30.23,WNW,292,4.4,5.1,45,0.00,,,0.00,WUHU21623XXSP,2013-03-13 19:25:00,
2013-03-13 15:30:00,45.3,24.5,30.23,WNW,292,7.8,9.0,44,0.00,,,0.00,WUHU21623XXSP,2013-03-13 19:30:00,
2013-03-13 15:35:00,46.6,25.7,30.23,NNE,22,3.8,9.0,44,0.00,,,0.00,WUHU21623XXSP,2013-03-13 19:35:00,
2013-03-13 15:40:00,46.8,25.3,30.23,North,0,6.6,9.0,43,0.00,,,0.00,WUHU21623XXSP,2013-03-13 19:40:00,
2013-03-13 15:45:00,48.2,26.1,30.23,South,180,5.2,7.6,42,0.00,,,0.00,WUHU21623XXSP,2013-03-13 19:45:00,
2013-03-13 15:50:00,47.8,25.2,30.24,West,270,0.0,6.0,41,0.00,,,0.00,WUHU21623XXSP,2013-03-13 19:50:00,
2013-03-13 15:55:00,47.5,25.4,30.24,WNW,292,2.1,6.0,42,0.00,,,0.00,WUHU21623XXSP,2013-03-13 19:55:00,
2013-03-13 16:00:00,46.2,24.3,30.24,WNW,292,5.6,6.5,42,0.00,,,0.00,WUHU21623XXSP,2013-03-13 20:00:00,
2013-03-13 16:05:00,45.5,23.6,30.24,South,180,3.3,6.5,42,0.00,,,0.00,WUHU21623XXSP,2013-03-13 20:05:00,
2013-03-13 16:10:00,44.8,23.5,30.24,WNW,292,2.6,6.5,43,0.00,,,0.00,WUHU21623XXSP,2013-03-13 20:10:00,
2013-03-13 16:15:00,43.7,23.1,30.24,WNW,292,3.3,5.4,44,0.00,,,0.00,WUHU21623XXSP,2013-03-13 20:15:00,
2013-03-13 16:20:00,43.2,22.6,30.24,WNW,292,4.0,10.4,44,0.00,,,0.00,WUHU21623XXSP,2013-03-13 20:20:00,
2013-03-13 16:26:00,43.7,23.6,30.24,WNW,292,4.7,10.4,45,0.00,,,0.00,WUHU21623XXSP,2013-03-13 20:26:00,
2013-03-13 16:31:00,43.9,23.3,30.24,WNW,292,5.8,6.8,44,0.00,,,0.00,WUHU21623XXSP,2013-03-13 20:31:00,
2013-03-13 16:36:00,45.0,23.7,30.24,West,270,0.0,6.8,43,0.00,,,0.00,WUHU21623XXSP,2013-03-13 20:36:00,
2013-03-13 16:41:00,44.2,23.0,30.24,WNW,292,1.4,6.8,43,0.00,,,0.00,WUHU21623XXSP,2013-03-13 20:41:00,
2013-03-13 16:46:00,43.5,22.9,30.25,West,270,3.8,4.4,44,0.00,,,0.00,WUHU21623XXSP,2013-03-13 20:46:00,
2013-03-13 16:51:00,43.2,22.6,30.25,WNW,292,2.1,4.4,44,0.00,,,0.00,WUHU21623XXSP,2013-03-13 20:51:00,
2013-03-13 16:56:00,43.0,23.0,30.25,WNW,292,7.3,8.4,45,0.00,,,0.00,WUHU21623XXSP,2013-03-13 20:56:00,
2013-03-13 17:01:00,43.0,23.0,30.25,WNW,292,1.7,8.4,45,0.00,,,0.00,WUHU21623XXSP,2013-03-13 21:01:00,
2013-03-13 17:06:00,42.6,22.1,30.25,North,0,0.0,8.4,44,0.00,,,0.00,WUHU21623XXSP,2013-03-13 21:06:00,
2013-03-13 17:11:00,42.6,22.1,30.25,North,0,2.6,4.6,44,0.00,,,0.00,WUHU21623XXSP,2013-03-13 21:11:00,
2013-03-13 17:16:00,42.6,22.1,30.25,WNW,292,4.0,4.6,44,0.00,,,0.00,WUHU21623XXSP,2013-03-13 21:16:00,
2013-03-13 17:21:00,42.6,22.1,30.25,WNW,292,0.0,4.6,44,0.00,,,0.00,WUHU21623XXSP,2013-03-13 21:21:00,
2013-03-13 17:26:00,43.3,23.3,30.25,North,0,3.8,4.6,45,0.00,,,0.00,WUHU21623XXSP,2013-03-13 21:26:00,
2013-03-13 17:31:00,44.4,23.7,30.25,NNE,22,1.4,4.4,44,0.00,,,0.00,WUHU21623XXSP,2013-03-13 21:31:00,
2013-03-13 17:36:00,44.4,23.7,30.26,West,270,0.0,17.8,44,0.00,,,0.00,WUHU21623XXSP,2013-03-13 21:36:00,
2013-03-13 17:41:00,43.9,22.7,30.26,WNW,292,5.6,17.8,43,0.00,,,0.00,WUHU21623XXSP,2013-03-13 21:41:00,
2013-03-13 17:46:00,43.0,22.4,30.26,WNW,292,3.8,15.2,44,0.00,,,0.00,WUHU21623XXSP,2013-03-13 21:46:00,
2013-03-13 17:52:00,42.4,22.5,30.26,West,270,0.0,9.5,45,0.00,,,0.00,WUHU21623XXSP,2013-03-13 21:52:00,
2013-03-13 17:57:00,42.1,22.7,30.26,North,0,0.0,9.5,46,0.00,,,0.00,WUHU21623XXSP,2013-03-13 21:57:00,
2013-03-13 18:02:00,41.9,22.5,30.27,West,270,0.0,9.0,46,0.00,,,0.00,WUHU21623XXSP,2013-03-13 22:02:00,
2013-03-13 18:07:00,41.7,22.3,30.27,West,270,0.0,9.0,46,0.00,,,0.00,WUHU21623XXSP,2013-03-13 22:07:00,
2013-03-13 18:12:00,41.5,22.1,30.27,West,270,0.0,6.5,46,0.00,,,0.00,WUHU21623XXSP,2013-03-13 22:12:00,
2013-03-13 18:17:00,41.0,21.6,30.27,WNW,292,2.6,4.6,46,0.00,,,0.00,WUHU21623XXSP,2013-03-13 22:17:00,
2013-03-13 18:22:00,40.8,21.5,30.27,WNW,292,4.7,5.4,46,0.00,,,0.00,WUHU21623XXSP,2013-03-13 22:22:00,
2013-03-13 18:27:00,40.8,21.5,30.28,WNW,292,3.5,6.0,46,0.00,,,0.00,WUHU21623XXSP,2013-03-13 22:27:00,
2013-03-13 18:32:00,40.8,22.0,30.28,WNW,292,2.1,6.0,47,0.00,,,0.00,WUHU21623XXSP,2013-03-13 22:32:00,
2013-03-13 18:37:00,40.8,22.5,30.28,WNW,292,0.0,6.0,48,0.00,,,0.00,WUHU21623XXSP,2013-03-13 22:37:00,
2013-03-13 18:42:00,40.6,21.8,30.28,WNW,292,2.1,4.4,47,0.00,,,0.00,WUHU21623XXSP,2013-03-13 22:42:00,
2013-03-13 18:47:00,40.1,21.3,30.29,North,0,2.1,3.3,47,0.00,,,0.00,WUHU21623XXSP,2013-03-13 22:47:00,
2013-03-13 18:52:00,40.1,21.3,30.29,WNW,292,2.3,2.7,47,0.00,,,0.00,WUHU21623XXSP,2013-03-13 22:52:00,
2013-03-13 18:57:00,39.9,21.7,30.29,WNW,292,2.6,3.0,48,0.00,,,0.00,WUHU21623XXSP,2013-03-13 22:57:00,
2013-03-13 19:02:00,39.9,21.7,30.29,WNW,292,4.7,5.4,48,0.00,,,0.00,WUHU21623XXSP,2013-03-13 23:02:00,
2013-03-13 19:07:00,39.9,22.2,30.29,West,270,0.0,5.4,49,0.00,,,0.00,WUHU21623XXSP,2013-03-13 23:07:00,
2013-03-13 19:12:00,39.7,22.1,30.29,North,0,1.7,5.4,49,0.00,,,0.00,WUHU21623XXSP,2013-03-13 23:12:00,
2013-03-13 19:17:00,39.4,22.3,30.30,North,0,4.9,5.7,50,0.00,,,0.00,WUHU21623XXSP,2013-03-13 23:17:00,
2013-03-13 19:23:00,39.4,21.7,30.30,WNW,292,4.7,5.7,49,0.00,,,0.00,WUHU21623XXSP,2013-03-13 23:23:00,
2013-03-13 19:28:00,39.0,21.9,30.30,North,0,1.4,5.7,50,0.00,,,0.00,WUHU21623XXSP,2013-03-13 23:28:00,
2013-03-13 19:33:00,39.0,21.9,30.30,North,0,0.0,5.4,50,0.00,,,0.00,WUHU21623XXSP,2013-03-13 23:33:00,
2013-03-13 19:38:00,38.8,21.8,30.30,WNW,292,2.6,3.0,50,0.00,,,0.00,WUHU21623XXSP,2013-03-13 23:38:00,
2013-03-13 19:43:00,38.5,21.9,30.31,WNW,292,3.3,3.8,51,0.00,,,0.00,WUHU21623XXSP,2013-03-13 23:43:00,
2013-03-13 19:48:00,38.1,22.0,30.31,WNW,292,0.0,3.8,52,0.00,,,0.00,WUHU21623XXSP,2013-03-13 23:48:00,
2013-03-13 19:53:00,37.9,22.3,30.31,North,0,1.7,4.1,53,0.00,,,0.00,WUHU21623XXSP,2013-03-13 23:53:00,
2013-03-13 19:58:00,37.9,21.8,30.31,West,270,0.0,5.1,52,0.00,,,0.00,WUHU21623XXSP,2013-03-13 23:58:00,
2013-03-13 20:03:00,37.8,21.7,30.31,North,0,2.3,5.4,52,0.00,,,0.00,WUHU21623XXSP,2013-03-14 00:03:00,
2013-03-13 20:08:00,37.8,21.7,30.32,North,0,3.8,5.4,52,0.00,,,0.00,WUHU21623XXSP,2013-03-14 00:08:00,
2013-03-13 20:13:00,37.6,21.5,30.31,WNW,292,1.7,5.4,52,0.00,,,0.00,WUHU21623XXSP,2013-03-14 00:13:00,
2013-03-13 20:18:00,37.6,21.5,30.31,North,0,2.6,5.4,52,0.00,,,0.00,WUHU21623XXSP,2013-03-14 00:18:00,
2013-03-13 20:23:00,37.2,21.2,30.31,North,0,2.1,5.7,52,0.00,,,0.00,WUHU21623XXSP,2013-03-14 00:23:00,
2013-03-13 20:28:00,37.2,21.2,30.32,West,270,0.0,5.7,52,0.00,,,0.00,WUHU21623XXSP,2013-03-14 00:28:00,
2013-03-13 20:33:00,37.2,21.2,30.32,North,0,2.1,3.8,52,0.00,,,0.00,WUHU21623XXSP,2013-03-14 00:33:00,
2013-03-13 20:38:00,37.0,21.0,30.32,NNE,22,2.6,3.8,52,0.00,,,0.00,WUHU21623XXSP,2013-03-14 00:38:00,
2013-03-13 20:43:00,36.9,20.9,30.32,North,0,0.0,3.3,52,0.00,,,0.00,WUHU21623XXSP,2013-03-14 00:43:00,
2013-03-13 20:48:00,36.7,20.7,30.32,WNW,292,2.1,3.0,52,0.00,,,0.00,WUHU21623XXSP,2013-03-14 00:48:00,
2013-03-13 20:53:00,36.7,20.7,30.32,WNW,292,0.0,4.4,52,0.00,,,0.00,WUHU21623XXSP,2013-03-14 00:53:00,
2013-03-13 20:58:00,36.5,20.1,30.32,North,0,0.0,4.4,51,0.00,,,0.00,WUHU21623XXSP,2013-03-14 00:58:00,
2013-03-13 21:03:00,36.5,20.1,30.32,WNW,292,4.0,4.6,51,0.00,,,0.00,WUHU21623XXSP,2013-03-14 01:03:00,
2013-03-13 21:08:00,36.3,20.4,30.32,WNW,292,2.3,4.6,52,0.00,,,0.00,WUHU21623XXSP,2013-03-14 01:08:00,
2013-03-13 21:13:00,36.3,20.4,30.32,North,0,4.9,5.7,52,0.00,,,0.00,WUHU21623XXSP,2013-03-14 01:13:00,
2013-03-13 21:18:00,36.1,20.2,30.32,WNW,292,0.0,5.7,52,0.00,,,0.00,WUHU21623XXSP,2013-03-14 01:18:00,
2013-03-13 21:24:00,36.0,20.5,30.33,WNW,292,0.0,5.7,53,0.00,,,0.00,WUHU21623XXSP,2013-03-14 01:24:00,
2013-03-13 21:29:00,35.8,20.3,30.33,WNW,292,6.4,7.4,53,0.00,,,0.00,WUHU21623XXSP,2013-03-14 01:29:00,
2013-03-13 21:34:00,35.8,20.3,30.33,North,0,2.9,7.4,53,0.00,,,0.00,WUHU21623XXSP,2013-03-14 01:34:00,
2013-03-13 21:39:00,35.8,20.3,30.33,North,0,2.9,7.4,53,0.00,,,0.00,WUHU21623XXSP,2013-03-14 01:39:00,
2013-03-13 21:44:00,35.4,20.0,30.33,North,0,4.7,7.0,53,0.00,,,0.00,WUHU21623XXSP,2013-03-14 01:44:00,
2013-03-13 21:49:00,35.4,20.0,30.33,WNW,292,0.0,5.4,53,0.00,,,0.00,WUHU21623XXSP,2013-03-14 01:49:00,
2013-03-13 21:54:00,35.4,20.0,30.34,North,0,0.9,6.5,53,0.00,,,0.00,WUHU21623XXSP,2013-03-14 01:54:00,
2013-03-13 21:59:00,35.4,20.0,30.34,North,0,0.0,6.5,53,0.00,,,0.00,WUHU21623XXSP,2013-03-14 01:59:00,
2013-03-13 22:04:00,35.2,19.8,30.34,North,0,2.6,3.0,53,0.00,,,0.00,WUHU21623XXSP,2013-03-14 02:04:00,
2013-03-13 22:09:00,35.2,19.8,30.34,North,0,0.0,3.0,53,0.00,,,0.00,WUHU21623XXSP,2013-03-14 02:09:00,
2013-03-13 22:14:00,34.9,19.4,30.34,WNW,292,0.0,3.0,53,0.00,,,0.00,WUHU21623XXSP,2013-03-14 02:14:00,
2013-03-13 22:19:00,34.7,19.3,30.35,NNE,22,0.0,5.4,53,0.00,,,0.00,WUHU21623XXSP,2013-03-14 02:19:00,
2013-03-13 22:24:00,34.5,19.5,30.35,North,0,0.9,5.4,54,0.00,,,0.00,WUHU21623XXSP,2013-03-14 02:24:00,
2013-03-13 22:29:00,34.5,19.5,30.35,WNW,292,4.0,4.6,54,0.00,,,0.00,WUHU21623XXSP,2013-03-14 02:29:00,
2013-03-13 22:34:00,34.3,19.3,30.35,North,0,4.7,5.4,54,0.00,,,0.00,WUHU21623XXSP,2013-03-14 02:34:00,
2013-03-13 22:39:00,34.2,19.1,30.35,North,0,0.0,5.4,54,0.00,,,0.00,WUHU21623XXSP,2013-03-14 02:39:00,
2013-03-13 22:44:00,34.2,19.6,30.35,North,0,4.7,5.4,55,0.00,,,0.00,WUHU21623XXSP,2013-03-14 02:44:00,
2013-03-13 22:49:00,33.8,18.8,30.35,WNW,292,2.3,5.4,54,0.00,,,0.00,WUHU21623XXSP,2013-03-14 02:49:00,
2013-03-13 22:54:00,33.6,19.1,30.35,WNW,292,2.1,5.4,55,0.00,,,0.00,WUHU21623XXSP,2013-03-14 02:54:00,
2013-03-13 22:59:00,33.4,18.9,30.35,North,0,2.9,3.3,55,0.00,,,0.00,WUHU21623XXSP,2013-03-14 02:59:00,
2013-03-13 23:04:00,33.4,18.9,30.35,WNW,292,0.9,5.1,55,0.00,,,0.00,WUHU21623XXSP,2013-03-14 03:04:00,
2013-03-13 23:09:00,33.1,18.6,30.35,North,0,3.8,5.1,55,0.00,,,0.00,WUHU21623XXSP,2013-03-14 03:09:00,
2013-03-13 23:14:00,32.9,18.8,30.35,WNW,292,0.0,4.4,56,0.00,,,0.00,WUHU21623XXSP,2013-03-14 03:14:00,
2013-03-13 23:19:00,32.5,18.5,30.35,North,0,33.2,38.3,56,0.00,,,0.00,WUHU21623XXSP,2013-03-14 03:19:00,
2013-03-13 23:24:00,32.5,18.9,30.35,WNW,292,4.4,38.3,57,0.00,,,0.00,WUHU21623XXSP,2013-03-14 03:24:00,
2013-03-13 23:29:00,32.7,19.1,30.35,WNW,292,0.0,5.1,57,0.00,,,0.00,WUHU21623XXSP,2013-03-14 03:29:00,
2013-03-13 23:34:00,32.5,18.9,30.36,WNW,292,1.7,5.4,57,0.00,,,0.00,WUHU21623XXSP,2013-03-14 03:34:00,
2013-03-13 23:39:00,32.5,19.4,30.35,WNW,292,0.0,5.4,58,0.00,,,0.00,WUHU21623XXSP,2013-03-14 03:39:00,
2013-03-13 23:44:00,32.5,19.4,30.36,North,0,3.3,3.8,58,0.00,,,0.00,WUHU21623XXSP,2013-03-14 03:44:00,
2013-03-13 23:49:00,32.5,19.4,30.36,North,0,0.0,3.8,58,0.00,,,0.00,WUHU21623XXSP,2013-03-14 03:49:00,
2013-03-13 23:54:00,32.4,19.2,30.36,SSW,202,0.0,3.8,58,0.00,,,0.00,WUHU21623XXSP,2013-03-14 03:54:00,
2013-03-13 23:59:00,32.2,19.1,30.36,NNE,22,0.0,3.3,58,0.00,,,0.00,WUHU21623XXSP,2013-03-14 03:59:00,